{"data":{"norad_id":59238,"epoch":"2026-05-25T03:47:24.242208Z","epoch_age_seconds":64615,"freshness":"FRESH","line1":"1 59238U 24049H   26145.15791947  .00000607  00000+0  31579-4 0  9998","line2":"2 59238  43.0029  71.4504 0001067 262.9871  97.0860 15.27584831124109","mean_motion":15.27584831,"eccentricity":0.0001067,"inclination_deg":43.0029,"raan_deg":71.4504,"arg_perigee_deg":262.9871,"mean_anomaly_deg":97.086,"bstar":3.1579e-5,"rev_number":12410,"period_min":94.266450594258,"perigee_km":482.30254331288,"apogee_km":483.76671733879,"semimajor_km":6861.1716303258,"source":"CELESTRAK","updated_at":"2026-05-25T13:38:18.870437Z"}}